GPS BIIF-12 (PRN 32)

Last updated on June 26, 2019, 3:46 a.m. UTC

1 41328U 16007A   19175.63202279  .00000078  00000-0  00000+0 0  9990
2 41328  54.8209 190.6804 0033034 220.8242 138.9674  2.00572082 24751
UTC
Height (km)
Latitude
Longitude
Inclination
Orbital Period
UTC large
Height (km)
Speed (km/s)
/
Latitude / Longitude
Inclination (degrees)
Orbital Period (minutes)
Azimuth
Elevation
Range (km)
Doppler Factor
iOS Compass Heading
iOS Angle

Next 30 passes for location: Hong Kong

Rise time Rise Azimuth (degrees) Set time Set Azimuth (degrees) Duration Max altitude (degrees)

No matching passes for this satellites